Weather in Chernogorsk

Russia / Republic of Khakassia     53°49′37″N   91°18′21″E
temp.,
°C
wind,
m/s
gust,
m/s
humid.,
%
clouds,
%
prec.,
mm/h
press.,
hPa
HPBL,
m
6 march, sat
sat601:00−6s6127883 0.0 1026242
04:00−5ssw71576100 0.0 1025345
07:00−6ssw51079100 0.0 1025203
10:00−5ssw4879100 0.0 1024277
13:00−3s5874100 0.0 1022343
16:00−1s4880100 0.0 1019291
19:00−4s238399 0.0 101822
22:00−6s238495 0.0 101722
7 march, sun
sun701:00−6s228197 0.0 101722
04:00−5s4776100 0.0 1017113
07:00−5ssw61377100 0.0 1018241
10:00−3ssw71474100 0.0 1017408
13:000ssw81373100 0.0 1017727
16:00+1sw71378100 0.0 1017914
19:00−1sw51075100 0.0 1019210
22:00−5sw367951 0.0 1022100
8 march, mon
mon801:00−8wnw128342 0.0 102422
04:00−9ne118572 0.0 102521
07:00−10n118786 0.0 102621
10:00−7nne008725 0.0 102399
13:00−3s018626 0.0 1020337
16:00−2wnw219099 0.0 1016207
19:00−3w1293100 0.0 101623
22:00−6ssw2292100 0.0 101622
9 march, tue
tue901:00−6ssw2292100 0.0 101623
04:00−3ssw4884100 0.0 1017158
07:00−2ssw6128283 0.0 1020246
10:00−1ssw5108293 0.0 1022593
13:00+1wsw4127996 0.0 10241717
16:000wsw5106441 0.0 1025955
19:00−5wsw346320 0.0 102727
22:00−8ne11722 0.0 102821
10 march, wed
wed1001:00−9nne11752 0.0 102621
04:00−10n11828 0.0 102321
07:00−10nw018442 0.0 102321
10:00−7sse118437 0.0 1020158
13:00−2s248125 0.0 1018379
16:000se238311 0.0 1016322
19:00−4ene019145 0.0 101521
22:00−5nnw1192100 0.0 101521